Location: *
(40.7873°S, 98.7174°E)
Time: 09:04:53
(UTC+00:00)

Meteor 1-26 Rocket - Pass Details

Date: 24 May 2022
Orbit: 809 x 926 km, 81.3° (Epoch: 04 July)

Event Time Altitude Azimuth Distance (km) Brightness Sun altitude
Rises 11:21:06 0° 186° (S) 3,608 7.4 -13.3°
Reaches altitude 10° 11:23:41 10° 181° (S) 2,661 6.6 -13.7°
Maximum altitude 11:29:40 55° 103° (ESE) 1,110 4.5 -14.8°
Drops below altitude 10° 11:35:32 10° 25° (NNE) 2,608 6.6 -15.9°
Sets 11:38:02 0° 21° (NNE) 3,530 7.4 -16.4°
